Regional Weather Roundup
Issued by NWS

Home | Current Version | Previous Version | Graphics & Text | Print | Product List | Glossary On
Versions: 1 2 3 4 5 6 7 8 9 10 11 12 13 14 15 16 17 18 19 20 21 22 23 24 25 26 27 28 29 30 31 32 33 34 35 36 37 38 39 40 41 42 43 44 45 46 47 48 49 50
977
ASUS44 KLIX 191607
RWRLA
LOUISIANA WEATHER ROUNDUP
NATIONAL WEATHER SERVICE NEW ORLEANS LA
1100 AM CDT SUN APR 19 2015

NOTE: "FAIR" INDICATES FEW OR NO CLOUDS BELOW 12,000 FEET WITH NO
      SIGNIFICANT WEATHER AND/OR OBSTRUCTIONS TO VISIBILITY.
      SKY/WX - SKY CONDITION AND SIGNIFICANT WEATHER.
      TMP - AIR TEMPERATURE.    DP   - DEWPOINT TEMPERATURE.
      RH  - RELATIVE HUMIDITY.  PRES - PRESSURE.
      HX  - HEAT INDEX.         WCI  - WIND CHILL INDEX.

*  THESE STATIONS ARE NOT NWS OR FAA STATIONS AND ARE NOT UNDER
   NWS QUALITY CONTROL.

LAZ040-048-061>063-065-066-069-191700-
SOUTHEAST LOUISIANA

CITY           SKY/WX    TMP DP  RH WIND       PRES   REMARKS
N.O. AUDUBON     N/A     82  70  67 MISG        N/A
N.O. INTL ARPT PTSUNNY   81  63  54 W10       29.82R
N.O. LAKEFRONT PTSUNNY   81  65  58 W14       29.82R
SLIDELL        CLOUDY    77  67  71 VRB6      29.80R
BATON ROUGE    SUNNY     79  60  52 W10       29.84R
BOOTHVILLE     CLOUDY    74  72  93 S9        29.86R
BELLE CHASSE   PTSUNNY   77  65  66 W8        29.82R
BOGALUSA*        N/A     78  65  64 W10       29.81R
GALLIANO*      MOSUNNY   79  67  67 SW13      29.85R
NEW ROADS*     FAIR      74  60  61 W6        29.85R
GONZALES*      FAIR      78  65  63 SW6       29.83R
HAMMOND*       SUNNY     79  63  57 W14       29.83R
HOUMA*         SUNNY     81  63  54 SW12      29.83R
PORT FOURCHON* SUNNY     75  68  78 S12       29.89R

$$

LAZ041-044-053-054-191700-
SOUTHWEST LOUISIANA

CITY           SKY/WX    TMP DP  RH WIND       PRES   REMARKS
LAKE CHARLES   SUNNY     75  60  59 W9        29.82S
LAFAYETTE      SUNNY     77  59  53 W6        29.85R
PATTERSON      SUNNY     79  64  61 W9        29.86R
SALT POINT       N/A     75  68  78 VRB5      29.84R
NEW IBERIA     SUNNY     78  59  51 W5        29.86R
CHENAULT AIRPK SUNNY     75  57  53 W9        29.83R

$$

LAZ027-028-191700-
CENTRAL LOUISIANA

CITY           SKY/WX    TMP DP  RH WIND       PRES   REMARKS
FORT POLK      MOSUNNY   70  61  72 W6        29.81S
ALEXANDRIA INT SUNNY     70  61  73 NW7       29.81R
ALEXANDRIA     MOSUNNY   70  60  70 NW6       29.83R

$$

LAZ001-002-191700-
NORTHWEST LOUISIANA

CITY           SKY/WX    TMP DP  RH WIND       PRES   REMARKS
SHREVEPORT     MOSUNNY   68  60  75 S6        29.78F
BARKSDALE AFB  SUNNY     67  60  78 S5        29.79S
DTN SHREVEPORT SUNNY     67  60  78 S7        29.79F

$$

LAZ014-016-191700-
NORTHEAST LOUISIANA

CITY           SKY/WX    TMP DP  RH WIND       PRES   REMARKS
MONROE         MOSUNNY   71  62  73 W8        29.80R
TALLULAH       MOSUNNY   71  62  73 W7        29.81R

$$




USA.gov is the U.S. government's official web portal to all federal, state and local government web resources and services.